Year,Month,Day,Hour,Minute,Value (Times are PST for insolation in W/m^2)
2010,12,11,00,00,0.00
2010,12,11,00,01,0.00
2010,12,11,00,02,0.00
2010,12,11,00,03,0.00
2010,12,11,00,04,0.00
2010,12,11,00,05,0.00
2010,12,11,00,06,0.00
2010,12,11,00,07,0.00
2010,12,11,00,08,0.00
2010,12,11,00,09,0.00
2010,12,11,00,10,0.00
2010,12,11,00,11,0.00
2010,12,11,00,12,0.00
2010,12,11,00,13,0.00
2010,12,11,00,14,0.00
2010,12,11,00,15,0.00
2010,12,11,00,16,0.00
2010,12,11,00,17,0.00
2010,12,11,00,18,0.00
2010,12,11,00,19,0.00
2010,12,11,00,20,0.00
2010,12,11,00,21,0.00
2010,12,11,00,22,0.00
2010,12,11,00,23,0.00
2010,12,11,00,24,0.00
2010,12,11,00,25,0.00
2010,12,11,00,26,0.00
2010,12,11,00,27,0.00
2010,12,11,00,28,0.00
2010,12,11,00,29,0.00
2010,12,11,00,30,0.00
2010,12,11,00,31,0.00
2010,12,11,00,32,0.00
2010,12,11,00,33,0.00
2010,12,11,00,34,0.00
2010,12,11,00,35,0.00
2010,12,11,00,36,0.00
2010,12,11,00,37,0.00
2010,12,11,00,38,0.00
2010,12,11,00,39,0.00
2010,12,11,00,40,0.00
2010,12,11,00,41,0.00
2010,12,11,00,42,0.00
2010,12,11,00,43,0.00
2010,12,11,00,44,0.00
2010,12,11,00,45,0.00
2010,12,11,00,46,0.00
2010,12,11,00,47,0.00
2010,12,11,00,48,0.00
2010,12,11,00,49,0.00
2010,12,11,00,50,0.00
2010,12,11,00,51,0.00
2010,12,11,00,52,0.00
2010,12,11,00,53,0.00
2010,12,11,00,54,0.00
2010,12,11,00,55,0.00
2010,12,11,00,56,0.00
2010,12,11,00,57,0.00
2010,12,11,00,58,0.00
2010,12,11,00,59,0.00
2010,12,11,01,00,0.00
2010,12,11,01,01,0.00
2010,12,11,01,02,0.00
2010,12,11,01,03,0.00
2010,12,11,01,04,0.00
2010,12,11,01,05,0.00
2010,12,11,01,06,0.00
2010,12,11,01,07,0.00
2010,12,11,01,08,0.00
2010,12,11,01,09,0.00
2010,12,11,01,10,0.00
2010,12,11,01,11,0.00
2010,12,11,01,12,0.00
2010,12,11,01,13,0.00
2010,12,11,01,14,0.00
2010,12,11,01,15,0.00
2010,12,11,01,16,0.00
2010,12,11,01,17,0.00
2010,12,11,01,18,0.00
2010,12,11,01,19,0.00
2010,12,11,01,20,0.00
2010,12,11,01,21,0.00
2010,12,11,01,22,0.00
2010,12,11,01,23,0.00
2010,12,11,01,24,0.00
2010,12,11,01,25,0.00
2010,12,11,01,26,0.00
2010,12,11,01,27,0.00
2010,12,11,01,28,0.00
2010,12,11,01,29,0.00
2010,12,11,01,30,0.00
2010,12,11,01,31,0.00
2010,12,11,01,32,0.00
2010,12,11,01,33,0.00
2010,12,11,01,34,0.00
2010,12,11,01,35,0.00
2010,12,11,01,36,0.00
2010,12,11,01,37,0.00
2010,12,11,01,38,0.00
2010,12,11,01,39,0.00
2010,12,11,01,40,0.00
2010,12,11,01,41,0.00
2010,12,11,01,42,0.00
2010,12,11,01,43,0.00
2010,12,11,01,44,0.00
2010,12,11,01,45,0.00
2010,12,11,01,46,0.00
2010,12,11,01,47,0.00
2010,12,11,01,48,0.00
2010,12,11,01,49,0.00
2010,12,11,01,50,0.00
2010,12,11,01,51,0.00
2010,12,11,01,52,0.00
2010,12,11,01,53,0.00
2010,12,11,01,54,0.00
2010,12,11,01,55,0.00
2010,12,11,01,56,0.00
2010,12,11,01,57,0.00
2010,12,11,01,58,0.00
2010,12,11,01,59,0.00
2010,12,11,02,00,0.00
2010,12,11,02,01,0.00
2010,12,11,02,02,0.00
2010,12,11,02,03,0.00
2010,12,11,02,04,0.00
2010,12,11,02,05,0.00
2010,12,11,02,06,0.00
2010,12,11,02,07,0.00
2010,12,11,02,08,0.00
2010,12,11,02,09,0.00
2010,12,11,02,10,0.00
2010,12,11,02,11,0.00
2010,12,11,02,12,0.00
2010,12,11,02,13,0.00
2010,12,11,02,14,0.00
2010,12,11,02,15,0.00
2010,12,11,02,16,0.00
2010,12,11,02,17,0.00
2010,12,11,02,18,0.00
2010,12,11,02,19,0.00
2010,12,11,02,20,0.00
2010,12,11,02,21,0.00
2010,12,11,02,22,0.00
2010,12,11,02,23,0.00
2010,12,11,02,24,0.00
2010,12,11,02,25,0.00
2010,12,11,02,26,0.00
2010,12,11,02,27,0.00
2010,12,11,02,28,0.00
2010,12,11,02,29,0.00
2010,12,11,02,30,0.00
2010,12,11,02,31,0.00
2010,12,11,02,32,0.00
2010,12,11,02,33,0.00
2010,12,11,02,34,0.00
2010,12,11,02,35,0.00
2010,12,11,02,36,0.00
2010,12,11,02,37,0.00
2010,12,11,02,38,0.00
2010,12,11,02,39,0.00
2010,12,11,02,40,0.00
2010,12,11,02,41,0.00
2010,12,11,02,42,0.00
2010,12,11,02,43,0.00
2010,12,11,02,44,0.00
2010,12,11,02,45,0.00
2010,12,11,02,46,0.00
2010,12,11,02,47,0.00
2010,12,11,02,48,0.00
2010,12,11,02,49,0.00
2010,12,11,02,50,0.00
2010,12,11,02,51,0.00
2010,12,11,02,52,0.00
2010,12,11,02,53,0.00
2010,12,11,02,54,0.00
2010,12,11,02,55,0.00
2010,12,11,02,56,0.00
2010,12,11,02,57,0.00
2010,12,11,02,58,0.00
2010,12,11,02,59,0.00
2010,12,11,03,00,0.00
2010,12,11,03,01,0.00
2010,12,11,03,02,0.00
2010,12,11,03,03,0.00
2010,12,11,03,04,0.00
2010,12,11,03,05,0.00
2010,12,11,03,06,0.00
2010,12,11,03,07,0.00
2010,12,11,03,08,0.00
2010,12,11,03,09,0.00
2010,12,11,03,10,0.00
2010,12,11,03,11,0.00
2010,12,11,03,12,0.00
2010,12,11,03,13,0.00
2010,12,11,03,14,0.00
2010,12,11,03,15,0.00
2010,12,11,03,16,0.00
2010,12,11,03,17,0.00
2010,12,11,03,18,0.00
2010,12,11,03,19,0.00
2010,12,11,03,20,0.00
2010,12,11,03,21,0.00
2010,12,11,03,22,0.00
2010,12,11,03,23,0.00
2010,12,11,03,24,0.00
2010,12,11,03,25,0.00
2010,12,11,03,26,0.00
2010,12,11,03,27,0.00
2010,12,11,03,28,0.00
2010,12,11,03,29,0.00
2010,12,11,03,30,0.00
2010,12,11,03,31,0.00
2010,12,11,03,32,0.00
2010,12,11,03,33,0.00
2010,12,11,03,34,0.00
2010,12,11,03,35,0.00
2010,12,11,03,36,0.00
2010,12,11,03,37,0.00
2010,12,11,03,38,0.00
2010,12,11,03,39,0.00
2010,12,11,03,40,0.00
2010,12,11,03,41,0.00
2010,12,11,03,42,0.00
2010,12,11,03,43,0.00
2010,12,11,03,44,0.00
2010,12,11,03,45,0.00
2010,12,11,03,46,0.00
2010,12,11,03,47,0.00
2010,12,11,03,48,0.00
2010,12,11,03,49,0.00
2010,12,11,03,50,0.00
2010,12,11,03,51,0.00
2010,12,11,03,52,0.00
2010,12,11,03,53,0.00
2010,12,11,03,54,0.00
2010,12,11,03,55,0.00
2010,12,11,03,56,0.00
2010,12,11,03,57,0.00
2010,12,11,03,58,0.00
2010,12,11,03,59,0.00
2010,12,11,04,00,0.00
2010,12,11,04,01,0.00
2010,12,11,04,02,0.00
2010,12,11,04,03,0.00
2010,12,11,04,04,0.00
2010,12,11,04,05,0.00
2010,12,11,04,06,0.00
2010,12,11,04,07,0.00
2010,12,11,04,08,0.00
2010,12,11,04,09,0.00
2010,12,11,04,10,0.00
2010,12,11,04,11,0.00
2010,12,11,04,12,0.00
2010,12,11,04,13,0.00
2010,12,11,04,14,0.00
2010,12,11,04,15,0.00
2010,12,11,04,16,0.00
2010,12,11,04,17,0.00
2010,12,11,04,18,0.00
2010,12,11,04,19,0.00
2010,12,11,04,20,0.00
2010,12,11,04,21,0.00
2010,12,11,04,22,0.00
2010,12,11,04,23,0.00
2010,12,11,04,24,0.00
2010,12,11,04,25,0.00
2010,12,11,04,26,0.00
2010,12,11,04,27,0.00
2010,12,11,04,28,0.00
2010,12,11,04,29,0.00
2010,12,11,04,30,0.00
2010,12,11,04,31,0.00
2010,12,11,04,32,0.00
2010,12,11,04,33,0.00
2010,12,11,04,34,0.00
2010,12,11,04,35,0.00
2010,12,11,04,36,0.00
2010,12,11,04,37,0.00
2010,12,11,04,38,0.00
2010,12,11,04,39,0.00
2010,12,11,04,40,0.00
2010,12,11,04,41,0.00
2010,12,11,04,42,0.00
2010,12,11,04,43,0.00
2010,12,11,04,44,0.00
2010,12,11,04,45,0.00
2010,12,11,04,46,0.00
2010,12,11,04,47,0.00
2010,12,11,04,48,0.00
2010,12,11,04,49,0.00
2010,12,11,04,50,0.00
2010,12,11,04,51,0.00
2010,12,11,04,52,0.00
2010,12,11,04,53,0.00
2010,12,11,04,54,0.00
2010,12,11,04,55,0.00
2010,12,11,04,56,0.00
2010,12,11,04,57,0.00
2010,12,11,04,58,0.00
2010,12,11,04,59,0.00
2010,12,11,05,00,0.00
2010,12,11,05,01,0.00
2010,12,11,05,02,0.00
2010,12,11,05,03,0.00
2010,12,11,05,04,0.00
2010,12,11,05,05,0.00
2010,12,11,05,06,0.00
2010,12,11,05,07,0.00
2010,12,11,05,08,0.00
2010,12,11,05,09,0.00
2010,12,11,05,10,0.00
2010,12,11,05,11,0.00
2010,12,11,05,12,0.00
2010,12,11,05,13,0.00
2010,12,11,05,14,0.00
2010,12,11,05,15,0.00
2010,12,11,05,16,0.00
2010,12,11,05,17,0.00
2010,12,11,05,18,0.00
2010,12,11,05,19,0.00
2010,12,11,05,20,0.00
2010,12,11,05,21,0.00
2010,12,11,05,22,0.00
2010,12,11,05,23,0.00
2010,12,11,05,24,0.00
2010,12,11,05,25,0.00
2010,12,11,05,26,0.00
2010,12,11,05,27,0.00
2010,12,11,05,28,0.00
2010,12,11,05,29,0.00
2010,12,11,05,30,0.00
2010,12,11,05,31,0.00
2010,12,11,05,32,0.00
2010,12,11,05,33,0.00
2010,12,11,05,34,0.00
2010,12,11,05,35,0.00
2010,12,11,05,36,0.00
2010,12,11,05,37,0.00
2010,12,11,05,38,0.00
2010,12,11,05,39,0.00
2010,12,11,05,40,0.00
2010,12,11,05,41,0.00
2010,12,11,05,42,0.00
2010,12,11,05,43,0.00
2010,12,11,05,44,0.00
2010,12,11,05,45,0.00
2010,12,11,05,46,0.00
2010,12,11,05,47,0.00
2010,12,11,05,48,0.00
2010,12,11,05,49,0.00
2010,12,11,05,50,0.00
2010,12,11,05,51,0.00
2010,12,11,05,52,0.00
2010,12,11,05,53,0.00
2010,12,11,05,54,0.00
2010,12,11,05,55,0.00
2010,12,11,05,56,0.00
2010,12,11,05,57,0.00
2010,12,11,05,58,0.00
2010,12,11,05,59,0.00
2010,12,11,06,00,0.00
2010,12,11,06,01,0.00
2010,12,11,06,02,0.00
2010,12,11,06,03,0.00
2010,12,11,06,04,0.00
2010,12,11,06,05,0.00
2010,12,11,06,06,0.00
2010,12,11,06,07,0.00
2010,12,11,06,08,0.00
2010,12,11,06,09,0.00
2010,12,11,06,10,0.00
2010,12,11,06,11,0.00
2010,12,11,06,12,0.00
2010,12,11,06,13,0.00
2010,12,11,06,14,0.00
2010,12,11,06,15,0.00
2010,12,11,06,16,0.00
2010,12,11,06,17,0.00
2010,12,11,06,18,0.00
2010,12,11,06,19,0.00
2010,12,11,06,20,0.00
2010,12,11,06,21,0.00
2010,12,11,06,22,0.00
2010,12,11,06,23,0.00
2010,12,11,06,24,0.00
2010,12,11,06,25,0.00
2010,12,11,06,26,0.00
2010,12,11,06,27,0.00
2010,12,11,06,28,0.00
2010,12,11,06,29,0.00
2010,12,11,06,30,0.00
2010,12,11,06,31,0.00
2010,12,11,06,32,0.00
2010,12,11,06,33,0.00
2010,12,11,06,34,0.00
2010,12,11,06,35,0.00
2010,12,11,06,36,0.00
2010,12,11,06,37,0.00
2010,12,11,06,38,0.00
2010,12,11,06,39,0.00
2010,12,11,06,40,0.00
2010,12,11,06,41,0.00
2010,12,11,06,42,0.00
2010,12,11,06,43,0.00
2010,12,11,06,44,0.00
2010,12,11,06,45,0.00
2010,12,11,06,46,0.00
2010,12,11,06,47,0.00
2010,12,11,06,48,0.00
2010,12,11,06,49,0.00
2010,12,11,06,50,0.00
2010,12,11,06,51,0.00
2010,12,11,06,52,0.00
2010,12,11,06,53,0.00
2010,12,11,06,54,0.00
2010,12,11,06,55,0.00
2010,12,11,06,56,0.00
2010,12,11,06,57,0.00
2010,12,11,06,58,0.00
2010,12,11,06,59,0.00
2010,12,11,07,00,0.00
2010,12,11,07,01,0.00
2010,12,11,07,02,0.00
2010,12,11,07,03,0.00
2010,12,11,07,04,0.00
2010,12,11,07,05,0.00
2010,12,11,07,06,0.00
2010,12,11,07,07,0.00
2010,12,11,07,08,0.00
2010,12,11,07,09,0.00
2010,12,11,07,10,0.00
2010,12,11,07,11,0.00
2010,12,11,07,12,0.00
2010,12,11,07,13,0.00
2010,12,11,07,14,0.00
2010,12,11,07,15,0.00
2010,12,11,07,16,0.00
2010,12,11,07,17,0.00
2010,12,11,07,18,0.00
2010,12,11,07,19,0.00
2010,12,11,07,20,0.00
2010,12,11,07,21,0.00
2010,12,11,07,22,0.00
2010,12,11,07,23,0.00
2010,12,11,07,24,0.00
2010,12,11,07,25,0.00
2010,12,11,07,26,0.00
2010,12,11,07,27,0.00
2010,12,11,07,28,0.00
2010,12,11,07,29,0.00
2010,12,11,07,30,0.00
2010,12,11,07,31,0.00
2010,12,11,07,32,0.00
2010,12,11,07,33,0.00
2010,12,11,07,34,0.00
2010,12,11,07,35,0.00
2010,12,11,07,36,0.00
2010,12,11,07,37,0.00
2010,12,11,07,38,0.00
2010,12,11,07,39,0.00
2010,12,11,07,40,0.00
2010,12,11,07,41,0.00
2010,12,11,07,42,0.00
2010,12,11,07,43,0.00
2010,12,11,07,44,0.00
2010,12,11,07,45,0.00
2010,12,11,07,46,0.00
2010,12,11,07,47,0.00
2010,12,11,07,48,0.00
2010,12,11,07,49,0.00
2010,12,11,07,50,0.00
2010,12,11,07,51,0.00
2010,12,11,07,52,0.00
2010,12,11,07,53,0.00
2010,12,11,07,54,0.00
2010,12,11,07,55,0.00
2010,12,11,07,56,0.00
2010,12,11,07,57,0.00
2010,12,11,07,58,0.00
2010,12,11,07,59,0.00
2010,12,11,08,00,0.00
2010,12,11,08,01,0.00
2010,12,11,08,02,0.00
2010,12,11,08,03,0.00
2010,12,11,08,04,0.00
2010,12,11,08,05,0.00
2010,12,11,08,06,0.00
2010,12,11,08,07,0.00
2010,12,11,08,08,0.00
2010,12,11,08,09,0.00
2010,12,11,08,10,0.00
2010,12,11,08,11,0.00
2010,12,11,08,12,0.00
2010,12,11,08,13,0.00
2010,12,11,08,14,0.00
2010,12,11,08,15,0.00
2010,12,11,08,16,0.00
2010,12,11,08,17,0.00
2010,12,11,08,18,0.00
2010,12,11,08,19,0.00
2010,12,11,08,20,3.40
2010,12,11,08,21,5.00
2010,12,11,08,22,5.00
2010,12,11,08,23,6.80
2010,12,11,08,24,7.00
2010,12,11,08,25,7.00
2010,12,11,08,26,7.00
2010,12,11,08,27,7.00
2010,12,11,08,28,7.00
2010,12,11,08,29,7.00
2010,12,11,08,30,7.00
2010,12,11,08,31,7.00
2010,12,11,08,32,8.00
2010,12,11,08,33,9.00
2010,12,11,08,34,9.00
2010,12,11,08,35,9.00
2010,12,11,08,36,10.50
2010,12,11,08,37,11.00
2010,12,11,08,38,11.00
2010,12,11,08,39,11.00
2010,12,11,08,40,11.10
2010,12,11,08,41,12.00
2010,12,11,08,42,12.00
2010,12,11,08,43,12.00
2010,12,11,08,44,12.00
2010,12,11,08,45,12.00
2010,12,11,08,46,12.00
2010,12,11,08,47,12.00
2010,12,11,08,48,12.00
2010,12,11,08,49,12.00
2010,12,11,08,50,12.00
2010,12,11,08,51,11.30
2010,12,11,08,52,11.00
2010,12,11,08,53,11.00
2010,12,11,08,54,11.90
2010,12,11,08,55,14.10
2010,12,11,08,56,16.00
2010,12,11,08,57,16.00
2010,12,11,08,58,16.00
2010,12,11,08,59,15.40
2010,12,11,09,00,14.00
2010,12,11,09,01,14.00
2010,12,11,09,02,14.00
2010,12,11,09,03,15.10
2010,12,11,09,04,16.00
2010,12,11,09,05,16.00
2010,12,11,09,06,16.00
2010,12,11,09,07,17.70
2010,12,11,09,08,18.00
2010,12,11,09,09,19.00
2010,12,11,09,10,19.00
2010,12,11,09,11,19.00
2010,12,11,09,12,19.40
2010,12,11,09,13,21.00
2010,12,11,09,14,21.00
2010,12,11,09,15,21.00
2010,12,11,09,16,21.00
2010,12,11,09,17,22.00
2010,12,11,09,18,24.10
2010,12,11,09,19,25.00
2010,12,11,09,20,25.70
2010,12,11,09,21,26.00
2010,12,11,09,22,26.00
2010,12,11,09,23,26.00
2010,12,11,09,24,26.00
2010,12,11,09,25,26.00
2010,12,11,09,26,26.00
2010,12,11,09,27,26.00
2010,12,11,09,28,25.80
2010,12,11,09,29,24.40
2010,12,11,09,30,22.20
2010,12,11,09,31,21.00
2010,12,11,09,32,22.00
2010,12,11,09,33,23.00
2010,12,11,09,34,23.00
2010,12,11,09,35,23.00
2010,12,11,09,36,21.50
2010,12,11,09,37,19.40
2010,12,11,09,38,20.70
2010,12,11,09,39,24.60
2010,12,11,09,40,26.00
2010,12,11,09,41,25.90
2010,12,11,09,42,24.60
2010,12,11,09,43,22.50
2010,12,11,09,44,21.00
2010,12,11,09,45,22.60
2010,12,11,09,46,25.00
2010,12,11,09,47,26.50
2010,12,11,09,48,30.20
2010,12,11,09,49,32.60
2010,12,11,09,50,33.00
2010,12,11,09,51,33.00
2010,12,11,09,52,33.00
2010,12,11,09,53,32.10
2010,12,11,09,54,32.90
2010,12,11,09,55,35.10
2010,12,11,09,56,37.20
2010,12,11,09,57,39.20
2010,12,11,09,58,41.50
2010,12,11,09,59,46.00
2010,12,11,10,00,47.10
2010,12,11,10,01,48.20
2010,12,11,10,02,46.50
2010,12,11,10,03,43.80
2010,12,11,10,04,40.80
2010,12,11,10,05,41.40
2010,12,11,10,06,43.50
2010,12,11,10,07,44.00
2010,12,11,10,08,46.50
2010,12,11,10,09,48.90
2010,12,11,10,10,49.00
2010,12,11,10,11,49.00
2010,12,11,10,12,49.30
2010,12,11,10,13,51.00
2010,12,11,10,14,50.40
2010,12,11,10,15,49.00
2010,12,11,10,16,48.20
2010,12,11,10,17,45.70
2010,12,11,10,18,42.90
2010,12,11,10,19,43.20
2010,12,11,10,20,44.00
2010,12,11,10,21,47.80
2010,12,11,10,22,50.70
2010,12,11,10,23,52.70
2010,12,11,10,24,49.40
2010,12,11,10,25,48.70
2010,12,11,10,26,42.00
2010,12,11,10,27,41.70
2010,12,11,10,28,40.50
2010,12,11,10,29,42.00
2010,12,11,10,30,41.00
2010,12,11,10,31,37.40
2010,12,11,10,32,33.50
2010,12,11,10,33,32.00
2010,12,11,10,34,30.80
2010,12,11,10,35,30.00
2010,12,11,10,36,31.50
2010,12,11,10,37,32.80
2010,12,11,10,38,33.00
2010,12,11,10,39,34.80
2010,12,11,10,40,37.20
2010,12,11,10,41,40.00
2010,12,11,10,42,40.00
2010,12,11,10,43,39.80
2010,12,11,10,44,39.30
2010,12,11,10,45,40.80
2010,12,11,10,46,43.60
2010,12,11,10,47,46.00
2010,12,11,10,48,48.80
2010,12,11,10,49,51.00
2010,12,11,10,50,53.00
2010,12,11,10,51,55.50
2010,12,11,10,52,53.60
2010,12,11,10,53,51.30
2010,12,11,10,54,52.90
2010,12,11,10,55,54.20
2010,12,11,10,56,58.20
2010,12,11,10,57,60.40
2010,12,11,10,58,62.20
2010,12,11,10,59,62.70
2010,12,11,11,00,60.70
2010,12,11,11,01,57.10
2010,12,11,11,02,55.00
2010,12,11,11,03,52.30
2010,12,11,11,04,52.20
2010,12,11,11,05,53.00
2010,12,11,11,06,53.70
2010,12,11,11,07,54.00
2010,12,11,11,08,55.70
2010,12,11,11,09,56.00
2010,12,11,11,10,56.00
2010,12,11,11,11,55.80
2010,12,11,11,12,53.80
2010,12,11,11,13,52.50
2010,12,11,11,14,50.40
2010,12,11,11,15,48.20
2010,12,11,11,16,46.60
2010,12,11,11,17,46.50
2010,12,11,11,18,48.10
2010,12,11,11,19,49.00
2010,12,11,11,20,49.00
2010,12,11,11,21,49.00
2010,12,11,11,22,50.60
2010,12,11,11,23,52.70
2010,12,11,11,24,53.00
2010,12,11,11,25,51.00
2010,12,11,11,26,51.50
2010,12,11,11,27,56.90
2010,12,11,11,28,63.20
2010,12,11,11,29,67.60
2010,12,11,11,30,69.00
2010,12,11,11,31,69.00
2010,12,11,11,32,66.90
2010,12,11,11,33,62.20
2010,12,11,11,34,57.60
2010,12,11,11,35,54.70
2010,12,11,11,36,54.00
2010,12,11,11,37,54.00
2010,12,11,11,38,54.00
2010,12,11,11,39,54.00
2010,12,11,11,40,54.00
2010,12,11,11,41,53.00
2010,12,11,11,42,53.00
2010,12,11,11,43,51.90
2010,12,11,11,44,48.10
2010,12,11,11,45,45.20
2010,12,11,11,46,44.00
2010,12,11,11,47,43.00
2010,12,11,11,48,40.90
2010,12,11,11,49,39.40
2010,12,11,11,50,36.40
2010,12,11,11,51,33.50
2010,12,11,11,52,32.20
2010,12,11,11,53,32.00
2010,12,11,11,54,30.10
2010,12,11,11,55,30.10
2010,12,11,11,56,32.00
2010,12,11,11,57,32.00
2010,12,11,11,58,32.00
2010,12,11,11,59,32.00
2010,12,11,12,00,32.00
2010,12,11,12,01,30.20
2010,12,11,12,02,27.00
2010,12,11,12,03,26.00
2010,12,11,12,04,25.40
2010,12,11,12,05,23.70
2010,12,11,12,06,21.50
2010,12,11,12,07,19.40
2010,12,11,12,08,19.00
2010,12,11,12,09,19.00
2010,12,11,12,10,19.10
2010,12,11,12,11,21.40
2010,12,11,12,12,25.20
2010,12,11,12,13,27.00
2010,12,11,12,14,30.00
2010,12,11,12,15,30.00
2010,12,11,12,16,30.00
2010,12,11,12,17,29.00
2010,12,11,12,18,28.00
2010,12,11,12,19,28.00
2010,12,11,12,20,28.00
2010,12,11,12,21,29.40
2010,12,11,12,22,31.60
2010,12,11,12,23,32.00
2010,12,11,12,24,32.00
2010,12,11,12,25,32.10
2010,12,11,12,26,33.20
2010,12,11,12,27,35.00
2010,12,11,12,28,35.00
2010,12,11,12,29,35.60
2010,12,11,12,30,37.00
2010,12,11,12,31,37.90
2010,12,11,12,32,39.50
2010,12,11,12,33,41.10
2010,12,11,12,34,43.30
2010,12,11,12,35,45.40
2010,12,11,12,36,46.80
2010,12,11,12,37,48.70
2010,12,11,12,38,49.00
2010,12,11,12,39,49.00
2010,12,11,12,40,49.00
2010,12,11,12,41,49.00
2010,12,11,12,42,49.40
2010,12,11,12,43,51.00
2010,12,11,12,44,51.60
2010,12,11,12,45,53.00
2010,12,11,12,46,53.00
2010,12,11,12,47,52.00
2010,12,11,12,48,51.00
2010,12,11,12,49,48.00
2010,12,11,12,50,44.60
2010,12,11,12,51,44.00
2010,12,11,12,52,42.40
2010,12,11,12,53,42.00
2010,12,11,12,54,39.20
2010,12,11,12,55,32.80
2010,12,11,12,56,30.30
2010,12,11,12,57,31.60
2010,12,11,12,58,30.00
2010,12,11,12,59,30.00
2010,12,11,13,00,31.80
2010,12,11,13,01,36.70
2010,12,11,13,02,39.00
2010,12,11,13,03,37.00
2010,12,11,13,04,33.10
2010,12,11,13,05,30.60
2010,12,11,13,06,28.50
2010,12,11,13,07,28.00
2010,12,11,13,08,28.00
2010,12,11,13,09,28.00
2010,12,11,13,10,28.00
2010,12,11,13,11,27.80
2010,12,11,13,12,26.00
2010,12,11,13,13,26.00
2010,12,11,13,14,25.70
2010,12,11,13,15,24.30
2010,12,11,13,16,23.80
2010,12,11,13,17,25.00
2010,12,11,13,18,25.00
2010,12,11,13,19,25.00
2010,12,11,13,20,25.00
2010,12,11,13,21,25.80
2010,12,11,13,22,26.00
2010,12,11,13,23,27.70
2010,12,11,13,24,26.10
2010,12,11,13,25,24.90
2010,12,11,13,26,22.40
2010,12,11,13,27,19.30
2010,12,11,13,28,20.50
2010,12,11,13,29,19.60
2010,12,11,13,30,22.40
2010,12,11,13,31,25.40
2010,12,11,13,32,25.50
2010,12,11,13,33,25.00
2010,12,11,13,34,26.80
2010,12,11,13,35,28.00
2010,12,11,13,36,26.60
2010,12,11,13,37,23.60
2010,12,11,13,38,23.00
2010,12,11,13,39,23.00
2010,12,11,13,40,19.30
2010,12,11,13,41,20.80
2010,12,11,13,42,18.90
2010,12,11,13,43,18.00
2010,12,11,13,44,18.30
2010,12,11,13,45,19.00
2010,12,11,13,46,19.90
2010,12,11,13,47,21.00
2010,12,11,13,48,19.90
2010,12,11,13,49,19.00
2010,12,11,13,50,19.00
2010,12,11,13,51,20.40
2010,12,11,13,52,22.60
2010,12,11,13,53,23.00
2010,12,11,13,54,21.10
2010,12,11,13,55,17.90
2010,12,11,13,56,16.20
2010,12,11,13,57,18.00
2010,12,11,13,58,18.20
2010,12,11,13,59,19.00
2010,12,11,14,00,18.60
2010,12,11,14,01,18.00
2010,12,11,14,02,18.50
2010,12,11,14,03,20.10
2010,12,11,14,04,21.00
2010,12,11,14,05,21.00
2010,12,11,14,06,19.50
2010,12,11,14,07,19.00
2010,12,11,14,08,18.10
2010,12,11,14,09,18.90
2010,12,11,14,10,20.90
2010,12,11,14,11,18.90
2010,12,11,14,12,18.20
2010,12,11,14,13,19.00
2010,12,11,14,14,18.70
2010,12,11,14,15,17.30
2010,12,11,14,16,16.00
2010,12,11,14,17,17.00
2010,12,11,14,18,18.50
2010,12,11,14,19,19.00
2010,12,11,14,20,16.90
2010,12,11,14,21,16.00
2010,12,11,14,22,14.40
2010,12,11,14,23,12.30
2010,12,11,14,24,12.00
2010,12,11,14,25,14.00
2010,12,11,14,26,14.00
2010,12,11,14,27,14.00
2010,12,11,14,28,13.50
2010,12,11,14,29,12.00
2010,12,11,14,30,12.00
2010,12,11,14,31,12.00
2010,12,11,14,32,13.00
2010,12,11,14,33,14.00
2010,12,11,14,34,14.00
2010,12,11,14,35,12.60
2010,12,11,14,36,11.20
2010,12,11,14,37,11.00
2010,12,11,14,38,11.00
2010,12,11,14,39,11.00
2010,12,11,14,40,11.00
2010,12,11,14,41,11.30
2010,12,11,14,42,14.40
2010,12,11,14,43,15.50
2010,12,11,14,44,14.60
2010,12,11,14,45,16.00
2010,12,11,14,46,16.00
2010,12,11,14,47,14.90
2010,12,11,14,48,14.00
2010,12,11,14,49,14.00
2010,12,11,14,50,14.00
2010,12,11,14,51,14.00
2010,12,11,14,52,15.60
2010,12,11,14,53,14.30
2010,12,11,14,54,14.00
2010,12,11,14,55,13.90
2010,12,11,14,56,12.00
2010,12,11,14,57,12.00
2010,12,11,14,58,12.00
2010,12,11,14,59,12.60
2010,12,11,15,00,14.00
2010,12,11,15,01,14.00
2010,12,11,15,02,13.00
2010,12,11,15,03,12.00
2010,12,11,15,04,12.00
2010,12,11,15,05,12.00
2010,12,11,15,06,11.20
2010,12,11,15,07,11.00
2010,12,11,15,08,11.90
2010,12,11,15,09,12.00
2010,12,11,15,10,11.00
2010,12,11,15,11,10.80
2010,12,11,15,12,9.40
2010,12,11,15,13,10.50
2010,12,11,15,14,9.00
2010,12,11,15,15,9.00
2010,12,11,15,16,9.80
2010,12,11,15,17,11.00
2010,12,11,15,18,11.00
2010,12,11,15,19,9.70
2010,12,11,15,20,7.70
2010,12,11,15,21,7.00
2010,12,11,15,22,7.00
2010,12,11,15,23,7.00
2010,12,11,15,24,7.00
2010,12,11,15,25,7.00
2010,12,11,15,26,6.80
2010,12,11,15,27,5.00
2010,12,11,15,28,5.00
2010,12,11,15,29,5.00
2010,12,11,15,30,5.00
2010,12,11,15,31,5.00
2010,12,11,15,32,5.00
2010,12,11,15,33,5.00
2010,12,11,15,34,5.00
2010,12,11,15,35,5.00
2010,12,11,15,36,5.00
2010,12,11,15,37,5.00
2010,12,11,15,38,0.70
2010,12,11,15,39,0.00
2010,12,11,15,40,0.20
2010,12,11,15,41,4.30
2010,12,11,15,42,0.00
2010,12,11,15,43,0.00
2010,12,11,15,44,0.00
2010,12,11,15,45,0.00
2010,12,11,15,46,0.00
2010,12,11,15,47,0.00
2010,12,11,15,48,0.00
2010,12,11,15,49,0.00
2010,12,11,15,50,0.00
2010,12,11,15,51,0.00
2010,12,11,15,52,0.00
2010,12,11,15,53,0.00
2010,12,11,15,54,0.00
2010,12,11,15,55,0.00
2010,12,11,15,56,0.00
2010,12,11,15,57,0.00
2010,12,11,15,58,0.00
2010,12,11,15,59,0.00
2010,12,11,16,00,0.00
2010,12,11,16,01,0.00
2010,12,11,16,02,0.00
2010,12,11,16,03,0.00
2010,12,11,16,04,0.00
2010,12,11,16,05,0.00
2010,12,11,16,06,0.00
2010,12,11,16,07,0.00
2010,12,11,16,08,0.00
2010,12,11,16,09,0.00
2010,12,11,16,10,0.00
2010,12,11,16,11,0.00
2010,12,11,16,12,0.00
2010,12,11,16,13,0.00
2010,12,11,16,14,0.00
2010,12,11,16,15,0.00
2010,12,11,16,16,0.00
2010,12,11,16,17,0.00
2010,12,11,16,18,0.00
2010,12,11,16,19,0.00
2010,12,11,16,20,0.00
2010,12,11,16,21,0.00
2010,12,11,16,22,0.00
2010,12,11,16,23,0.00
2010,12,11,16,24,0.00
2010,12,11,16,25,0.00
2010,12,11,16,26,0.00
2010,12,11,16,27,0.00
2010,12,11,16,28,0.00
2010,12,11,16,29,0.00
2010,12,11,16,30,0.00
2010,12,11,16,31,0.00
2010,12,11,16,32,0.00
2010,12,11,16,33,0.00
2010,12,11,16,34,0.00
2010,12,11,16,35,0.00
2010,12,11,16,36,0.00
2010,12,11,16,37,0.00
2010,12,11,16,38,0.00
2010,12,11,16,39,0.00
2010,12,11,16,40,0.00
2010,12,11,16,41,0.00
2010,12,11,16,42,0.00
2010,12,11,16,43,0.00
2010,12,11,16,44,0.00
2010,12,11,16,45,0.00
2010,12,11,16,46,0.00
2010,12,11,16,47,0.00
2010,12,11,16,48,0.00
2010,12,11,16,49,0.00
2010,12,11,16,50,0.00
2010,12,11,16,51,0.00
2010,12,11,16,52,0.00
2010,12,11,16,53,0.00
2010,12,11,16,54,0.00
2010,12,11,16,55,0.00
2010,12,11,16,56,0.00
2010,12,11,16,57,0.00
2010,12,11,16,58,0.00
2010,12,11,16,59,0.00
2010,12,11,17,00,0.00
2010,12,11,17,01,0.00
2010,12,11,17,02,0.00
2010,12,11,17,03,0.00
2010,12,11,17,04,0.00
2010,12,11,17,05,0.00
2010,12,11,17,06,0.00
2010,12,11,17,07,0.00
2010,12,11,17,08,0.00
2010,12,11,17,09,0.00
2010,12,11,17,10,0.00
2010,12,11,17,11,0.00
2010,12,11,17,12,0.00
2010,12,11,17,13,0.00
2010,12,11,17,14,0.00
2010,12,11,17,15,0.00
2010,12,11,17,16,0.00
2010,12,11,17,17,0.00
2010,12,11,17,18,0.00
2010,12,11,17,19,0.00
2010,12,11,17,20,0.00
2010,12,11,17,21,0.00
2010,12,11,17,22,0.00
2010,12,11,17,23,0.00
2010,12,11,17,24,0.00
2010,12,11,17,25,0.00
2010,12,11,17,26,0.00
2010,12,11,17,27,0.00
2010,12,11,17,28,0.00
2010,12,11,17,29,0.00
2010,12,11,17,30,0.00
2010,12,11,17,31,0.00
2010,12,11,17,32,0.00
2010,12,11,17,33,0.00
2010,12,11,17,34,0.00
2010,12,11,17,35,0.00
2010,12,11,17,36,0.00
2010,12,11,17,37,0.00
2010,12,11,17,38,0.00
2010,12,11,17,39,0.00
2010,12,11,17,40,0.00
2010,12,11,17,41,0.00
2010,12,11,17,42,0.00
2010,12,11,17,43,0.00
2010,12,11,17,44,0.00
2010,12,11,17,45,0.00
2010,12,11,17,46,0.00
2010,12,11,17,47,0.00
2010,12,11,17,48,0.00